Погода в Можи-Гуасу

Бразилия     22°21′02″S   46°57′18″W
темп.,
°C
ветер,
м/с
пор.,
м/с
влажн.,
%
обл.,
%
осадки,
мм/ч
давл.,
гПа
погр.,
м
8 декабря, ср
ср800:00+16ююв410775 0.0 1014499
03:00+15ююв49775 0.0 1013365
06:00+15ююв268126 0.1 1014239
09:00+21вюв226169 0.7 1015882
12:00+26юз234669 0.2 10121830
15:00+24ю6752100 0.5 10111260
18:00+20ююв5107099 0.3 1012754
21:00+17ююв411760 0.3 1015597
9 декабря, чт
чт900:00+15ю410840 0.0 1015384
03:00+14ююв37920 0.0 1014245
06:00+14ююв14890 0.0 1014133
09:00+22ююв22550 0.0 1014833
12:00+28ююз12380 0.0 10121894
15:00+29ю33291 0.0 10092724
18:00+25ююв48420 0.0 1009339
21:00+18ю38670 0.0 1013288
10 декабря, пт
пт1000:00+16ю25750 0.0 1013121
03:00+14ю11860 0.0 101211
06:00+14ю11870 0.0 101337
09:00+24юз11530 0.0 1013659
12:00+29юз25270 0.0 10102428
15:00+31юз34220 0.0 10072858
18:00+26зюз24380 0.0 100777
21:00+20в11500 0.0 100811
11 декабря, сб
сб1100:00+18в2255100 0.0 100927
03:00+17ссв115687 0.0 100811
06:00+17ссв11582 0.0 101022
09:00+27св23335 0.0 1010624
12:00+32ссз4525100 0.0 10072790
15:00+32ссв3427100 0.0 10052312
18:00+28св3545100 0.0 1004119
21:00+25св2555100 0.0 1006106
12 декабря, вс
вс1200:00+24ссв225696 0.0 100740
03:00+21св116360 0.0 100711
06:00+21св116777 0.0 100820
09:00+29с3546100 0.0 10091129
12:00+33ссз5534100 0.0 10073122
15:00+22юв368494 3.5 100790
18:00+23ссз1482100 1.1 1007143
21:00+22св2589100 2.5 1009109